User: anonymous   Login
Location: Unspecified
(0.0000°N, 0.0000°E)
Time: 01:02:43
(UTC+00:00)
Language:

STARLINK-36170 - Orbit

View from above orbital plane
View from above orbital plane
View from above satellite
View from above satellite

Ground track
Ground track

The orbit is defined by the following mean orbital elements,

1 67083U          26145.38455845 +.00000000 +00000-0 +29626-3 0 00005
2 67083  70.0007 181.1516 0002697 279.1779  80.9074 14.98339297    02
Epoch (UTC): 25 May 2026 09:13:45
Eccentricity: 0.0002697
inclination: 70.0007°
perigee height: 570 km
apogee height: 574 km
right ascension of ascending node: 181.1516°
argument of perigee: 279.1779°
revolutions per day: 14.98339297
mean anomaly at epoch: 80.9074°

The dashed part of the orbit path shows where the satellite is in the earth's shadow,  

DLR